Weather History for Orr, MN

Change the Weather History Date:

Sunday, December 2, 2012

  Actual Average Record
Temperature  
Mean Temperature 34 °F -  
Max Temperature 35 °F 25 °F 39 °F (1999)
Min Temperature 32 °F 12 °F -11 °F (2003)
Degree Days  
Heating Degree Days 32    
Moisture  
Dew Point 31 °F    
Average Humidity 92    
Maximum Humidity 100    
Minimum Humidity 87    
Precipitation  
Precipitation 0.00 in - - ()
Sea Level Pressure  
Sea Level Pressure 29.80 in    
Wind  
Wind Speed 4 mph (SSE)    
Max Wind Speed 16 mph    
Max Gust Speed 23 mph    
Visibility 3 miles    
Events Fog    
Averages and records for this station are not official NWS values.
T = Trace of Precipitation, MM = Missing Value Source: NWS Daily Summary

Daily Weather History Graph

Daily Weather History Graph

Search for Another Location

Airport:

Trip Planner

Search our weather history database for the weather conditions in past years. The results will help you decide how hot, cold, wet, or windy it might be!

Date:

Astronomy

Dec. 02, 2012 Rise Set
Actual Time 7:42 AM CST 4:19 PM CST
Civil Twilight 7:06 AM CST 4:55 PM CST
Nautical Twilight 6:27 AM CST 5:34 PM CST
Astronomical Twilight 5:49 AM CST 6:11 PM CST
Moon 8:15 PM CST (12/2) 10:25 AM CST (12/2)
Length of Visible Light 9h 49m
Length of Day
8h 37m
Waning Gibbous, 85% of the Moon is Illuminated
Dec 2
Waning Gibbous
Dec 6
Last Quarter
Dec 13
New
Dec 19
First Quarter
Dec 28
Full

Hourly Weather History & Observations

Time (CST) Temp. Windchill Dew Point Humidity Pressure Visibility Wind Dir Wind Speed Gust Speed Precip Events Conditions
12:13 AM 33.8 °F - 32.0 °F 93% 29.79 in 2.0 mi Calm Calm - N/A   Mist
12:33 AM 33.8 °F - 30.2 °F 87% 29.79 in 1.8 mi Calm Calm - N/A   Mostly Cloudy
12:53 AM 33.8 °F - 30.2 °F 87% 29.79 in 1.5 mi Calm Calm - N/A   Overcast
1:13 AM 33.8 °F - 30.2 °F 87% 29.79 in 1.2 mi Calm Calm - N/A   Overcast
1:53 AM 33.8 °F - 30.2 °F 87% 29.81 in 1.0 mi Calm Calm - N/A   Overcast
2:13 AM 33.8 °F 30.8 °F 30.2 °F 87% 29.82 in 1.0 mi WNW 3.5 mph - N/A   Overcast
2:33 AM 32.0 °F - 30.2 °F 93% 29.82 in 1.5 mi Calm Calm - N/A   Overcast
2:53 AM 32.0 °F - 30.2 °F 93% 29.82 in 0.5 mi Calm Calm - N/A Fog Fog
3:13 AM 32.0 °F - 30.2 °F 93% 29.83 in 0.8 mi Calm Calm - N/A   Overcast
3:33 AM 32.0 °F - 30.2 °F 93% 29.83 in 0.8 mi Calm Calm - N/A   Overcast
3:53 AM 32.0 °F - 30.2 °F 93% 29.84 in 2.5 mi Calm Calm - N/A   Scattered Clouds
4:13 AM 32.0 °F - 30.2 °F 93% 29.85 in 2.5 mi Calm Calm - N/A   Mist
4:33 AM 32.0 °F - 30.2 °F 93% 29.85 in 3.0 mi Calm Calm - N/A   Mist
4:53 AM 32.0 °F - 30.2 °F 93% 29.84 in 2.5 mi Calm Calm - N/A   Scattered Clouds
5:13 AM 32.0 °F - 30.2 °F 93% 29.85 in 1.8 mi Calm Calm - N/A   Mostly Cloudy
5:33 AM 32.0 °F - 30.2 °F 93% 29.85 in 1.5 mi Calm Calm - N/A   Mostly Cloudy
5:53 AM 32.0 °F - 30.2 °F 93% 29.85 in 1.2 mi Calm Calm - N/A   Overcast
6:13 AM 32.0 °F - 30.2 °F 93% 29.86 in 1.2 mi Calm Calm - N/A   Mostly Cloudy
6:33 AM 32.0 °F - 30.2 °F 93% 29.87 in 1.2 mi Calm Calm - N/A   Mostly Cloudy
6:53 AM 32.0 °F - 30.2 °F 93% 29.87 in 1.2 mi Calm Calm - N/A   Overcast
7:13 AM 32.0 °F - 30.2 °F 93% 29.87 in 0.5 mi Calm Calm - N/A Fog Fog
7:33 AM 32.0 °F - 30.2 °F 93% 29.87 in 0.5 mi Calm Calm - N/A Fog Fog
7:53 AM 32.0 °F - 30.2 °F 93% 29.86 in 0.2 mi Calm Calm - N/A Fog Fog
8:13 AM 32.0 °F - 30.2 °F 93% 29.88 in 0.2 mi Calm Calm - N/A Fog Fog
8:33 AM 32.0 °F - 30.2 °F 93% 29.90 in 0.5 mi Calm Calm - N/A Fog Fog
8:53 AM 32.0 °F - 30.2 °F 93% 29.89 in 1.0 mi Calm Calm - N/A   Overcast
9:13 AM 32.0 °F - 30.2 °F 93% 29.87 in 0.5 mi Calm Calm - N/A Fog Fog
9:33 AM 32.0 °F - 30.2 °F 93% 29.87 in 1.2 mi Calm Calm - N/A   Overcast
9:53 AM 32.0 °F 25.6 °F 30.2 °F 93% 29.87 in 4.0 mi South 6.9 mph - N/A   Scattered Clouds
10:13 AM 32.0 °F 25.6 °F 30.2 °F 93% 29.87 in 5.0 mi SSE 6.9 mph - N/A   Scattered Clouds
10:33 AM 32.0 °F 24.2 °F 30.2 °F 93% 29.86 in 5.0 mi SE 9.2 mph - N/A   Scattered Clouds
10:53 AM 32.0 °F 23.6 °F 30.2 °F 93% 29.87 in 4.0 mi SSE 10.4 mph - N/A   Scattered Clouds
11:13 AM 32.0 °F 24.2 °F 30.2 °F 93% 29.85 in 3.0 mi SSE 9.2 mph - N/A   Mostly Cloudy
11:33 AM 32.0 °F 23.6 °F 30.2 °F 93% 29.85 in 3.0 mi SSE 10.4 mph - N/A   Mostly Cloudy
11:53 AM 32.0 °F 24.8 °F 30.2 °F 93% 29.85 in 2.0 mi SSE 8.1 mph - N/A   Overcast
12:14 PM 32.0 °F 24.8 °F 30.2 °F 93% 29.84 in 1.8 mi South 8.1 mph - N/A   Overcast
12:33 PM 32.0 °F 25.6 °F 30.2 °F 93% 29.84 in 1.5 mi SSE 6.9 mph - N/A   Overcast
12:53 PM 32.0 °F 24.2 °F 30.2 °F 93% 29.84 in 1.8 mi SSE 9.2 mph - N/A   Overcast
1:13 PM 32.0 °F 24.2 °F 30.2 °F 93% 29.82 in 2.0 mi South 9.2 mph - N/A   Overcast
1:33 PM 33.8 °F 26.4 °F 30.2 °F 87% 29.83 in 2.0 mi SSE 9.2 mph - N/A   Overcast
1:53 PM 33.8 °F 29.6 °F 30.2 °F 87% 29.82 in 2.0 mi SSE 4.6 mph - N/A   Overcast
2:13 PM 33.8 °F 27.7 °F 30.2 °F 87% 29.82 in 2.5 mi SSE 6.9 mph - N/A   Overcast
2:33 PM 33.8 °F 27.0 °F 30.2 °F 87% 29.82 in 2.0 mi SSE 8.1 mph - N/A   Overcast
2:53 PM 33.8 °F 26.4 °F 30.2 °F 87% 29.81 in 2.5 mi SSE 9.2 mph - N/A   Overcast
3:13 PM 33.8 °F 27.7 °F 30.2 °F 87% 29.79 in 2.5 mi SE 6.9 mph - N/A   Overcast
3:53 PM 33.8 °F 27.7 °F 30.2 °F 87% 29.79 in 2.5 mi SSE 6.9 mph - N/A   Overcast
4:13 PM 33.8 °F 28.6 °F 30.2 °F 87% 29.78 in 2.0 mi SE 5.8 mph - N/A   Overcast
4:33 PM 33.8 °F 25.8 °F 30.2 °F 87% 29.78 in 2.5 mi SSE 10.4 mph - N/A   Overcast
4:53 PM 33.8 °F 26.4 °F 30.2 °F 87% 29.77 in 2.5 mi SSE 9.2 mph - N/A   Overcast
5:13 PM 33.8 °F 25.8 °F 32.0 °F 93% 29.77 in 2.5 mi SSE 10.4 mph 16.1 mph N/A   Overcast
5:33 PM 33.8 °F 27.0 °F 32.0 °F 93% 29.77 in 2.0 mi SE 8.1 mph - N/A   Overcast
5:53 PM 33.8 °F 25.3 °F 32.0 °F 93% 29.76 in 2.0 mi SSE 11.5 mph 17.3 mph N/A   Overcast
6:13 PM 33.8 °F 25.3 °F 32.0 °F 93% 29.76 in 2.0 mi SSE 11.5 mph - N/A   Overcast
6:33 PM 33.8 °F 26.4 °F 32.0 °F 93% 29.76 in 2.0 mi SSE 9.2 mph 17.3 mph N/A   Overcast
6:53 PM 33.8 °F 25.8 °F 32.0 °F 93% 29.75 in 3.0 mi SSE 10.4 mph - N/A   Overcast
7:13 PM 33.8 °F 25.8 °F 32.0 °F 93% 29.74 in 3.0 mi SSE 10.4 mph 17.3 mph N/A   Overcast
7:33 PM 33.8 °F 25.8 °F 32.0 °F 93% 29.73 in 3.0 mi SSE 10.4 mph 17.3 mph N/A   Overcast
7:53 PM 33.8 °F 25.3 °F 32.0 °F 93% 29.72 in 3.0 mi SSE 11.5 mph 17.3 mph N/A   Overcast
8:13 PM 33.8 °F 25.3 °F 32.0 °F 93% 29.71 in 4.0 mi SSE 11.5 mph 20.7 mph N/A   Mostly Cloudy
8:33 PM 33.8 °F 24.8 °F 33.8 °F 100% 29.70 in 5.0 mi SSE 12.7 mph - N/A   Scattered Clouds
8:53 PM 33.8 °F 24.8 °F 33.8 °F 100% 29.69 in 5.0 mi SSE 12.7 mph 19.6 mph N/A   Scattered Clouds
9:14 PM 35.6 °F 26.6 °F 33.8 °F 93% 29.69 in 5.0 mi SSE 13.8 mph 18.4 mph N/A   Scattered Clouds
9:33 PM 35.6 °F 27.1 °F 33.8 °F 93% 29.68 in 7.0 mi SSE 12.7 mph 17.3 mph N/A   Scattered Clouds
9:54 PM 35.6 °F 27.1 °F 33.8 °F 93% 29.68 in 7.0 mi SSE 12.7 mph 19.6 mph N/A   Scattered Clouds
10:13 PM 35.6 °F 26.6 °F 33.8 °F 93% 29.67 in 7.0 mi SSE 13.8 mph 21.9 mph N/A   Scattered Clouds
10:33 PM 35.6 °F 25.9 °F 33.8 °F 93% 29.66 in 10.0 mi SSE 16.1 mph 19.6 mph N/A   Clear
10:53 PM 35.6 °F 27.5 °F 33.8 °F 93% 29.65 in 7.0 mi SSE 11.5 mph 19.6 mph N/A   Clear
11:14 PM 35.6 °F 26.2 °F 33.8 °F 93% 29.64 in 10.0 mi SSE 15.0 mph 23.0 mph N/A   Clear
11:33 PM 35.6 °F 28.0 °F 33.8 °F 93% 29.64 in 10.0 mi SSE 10.4 mph 16.1 mph N/A   Clear
11:53 PM 35.6 °F 27.5 °F 33.8 °F 93% 29.63 in 10.0 mi SSE 11.5 mph 19.6 mph N/A   Clear